Valparaiso, IN

10:02 AM CDT on April 25, 2018 (GMT -0500)
Porter County Municipal

Weather History for KVPZ - November, 2012

Change the Weather History Date:

Saturday, November 24, 2012

  Actual Average Record
Temperature  
Mean Temperature 28 °F 37 °F  
Max Temperature 32 °F 44 °F 62 °F (2001)
Min Temperature 24 °F 30 °F 13 °F (2013)
Degree Days  
Heating Degree Days 37 28  
Month to date heating degree days 562 547  
Since 1 July heating degree days 1129 1077  
Cooling Degree Days 0 0  
Month to date cooling degree days 0 0  
Year to date cooling degree days 1054 713  
Moisture  
Dew Point 18 °F    
Average Humidity 66    
Maximum Humidity 75    
Minimum Humidity 59    
Precipitation  
Precipitation 0.00 in 0.10 in 0.52 in (2010)
Month to date precipitation 0.28 2.72  
Year to date precipitation 24.19 34.72  
Sea Level Pressure  
Sea Level Pressure 30.19 in    
Wind  
Wind Speed 9 mph (WSW)    
Max Wind Speed 16 mph    
Max Gust Speed 21 mph    
Visibility 10 miles    
Events      
T = Trace of Precipitation, MM = Missing Value Source: NWS Daily Summary

Daily Weather History Graph

Daily Weather History Graph

Search for Another Location

Airport or City:

Astronomy

Nov. 24, 2012 Rise Set
Actual Time 6:47 AM CST 4:21 PM CST
Civil Twilight 6:17 AM CST 4:52 PM CST
Nautical Twilight 5:43 AM CST 5:26 PM CST
Astronomical Twilight 5:10 AM CST 5:59 PM CST
Moon 2:08 PM CST (11/24) 3:02 AM CST (11/24)
Length of Visible Light 10h 34m
Length of Day
9h 33m
Waxing Gibbous, 87% of the Moon is Illuminated
Nov 24
Waxing Gibbous
Nov 28
Full
Dec 6
Last Quarter
Dec 13
New
Dec 19
First Quarter

Hourly Weather History & Observations

Time (CST) Temp. Windchill Dew Point Humidity Pressure Visibility Wind Dir Wind Speed Gust Speed Precip Events Conditions
12:53 AM 30.0 °F 20.0 °F 19.0 °F 64% 30.20 in 10.0 mi WNW 12.7 mph - N/A   Overcast
1:53 AM 28.9 °F 18.6 °F 19.0 °F 67% 30.21 in 10.0 mi WNW 12.7 mph - N/A   Overcast
2:53 AM 28.0 °F 19.3 °F 18.0 °F 66% 30.21 in 10.0 mi West 9.2 mph - N/A   Overcast
3:53 AM 27.0 °F 16.1 °F 17.1 °F 66% 30.22 in 10.0 mi West 12.7 mph - N/A   Overcast
4:53 AM 28.0 °F 18.1 °F 17.1 °F 63% 30.23 in 10.0 mi West 11.5 mph - N/A   Overcast
5:53 AM 27.0 °F 16.7 °F 17.1 °F 66% 30.23 in 10.0 mi West 11.5 mph - N/A   Overcast
6:53 AM 27.0 °F 15.6 °F 17.1 °F 66% 30.24 in 10.0 mi West 13.8 mph - N/A   Overcast
7:53 AM 27.0 °F 17.3 °F 17.1 °F 66% 30.25 in 10.0 mi West 10.4 mph - N/A   Overcast
8:53 AM 27.0 °F 17.3 °F 17.1 °F 66% 30.26 in 10.0 mi West 10.4 mph - N/A   Overcast
9:53 AM 28.0 °F 17.5 °F 17.1 °F 63% 30.27 in 10.0 mi West 12.7 mph - N/A   Overcast
10:53 AM 28.0 °F 17.5 °F 17.1 °F 63% 30.27 in 10.0 mi West 12.7 mph - N/A   Overcast
11:53 AM 28.9 °F 19.2 °F 18.0 °F 64% 30.24 in 10.0 mi West 11.5 mph - N/A   Overcast
12:53 PM 30.0 °F 22.4 °F 18.0 °F 61% 30.23 in 10.0 mi WSW 8.1 mph - N/A   Overcast
1:17 PM 28.4 °F 21.2 °F 17.6 °F 64% 30.19 in 10.0 mi WSW 6.9 mph - N/A   Mostly Cloudy
1:53 PM 30.0 °F 24.1 °F 17.1 °F 59% 30.21 in 10.0 mi SW 5.8 mph - N/A   Mostly Cloudy
2:53 PM 30.0 °F 21.7 °F 17.1 °F 59% 30.19 in 10.0 mi SSW 9.2 mph - N/A   Partly Cloudy
3:53 PM 28.9 °F 21.9 °F 17.1 °F 61% 30.18 in 10.0 mi SW 6.9 mph - N/A   Partly Cloudy
4:53 PM 27.0 °F 23.0 °F 17.1 °F 66% 30.17 in 10.0 mi SSW 3.5 mph - N/A   Clear
5:53 PM 26.1 °F 21.9 °F 17.1 °F 69% 30.17 in 10.0 mi South 3.5 mph - N/A   Clear
6:53 PM 25.0 °F 19.3 °F 17.1 °F 72% 30.14 in 10.0 mi SSE 4.6 mph - N/A   Clear
7:53 PM 26.1 °F 18.4 °F 18.0 °F 71% 30.11 in 10.0 mi South 6.9 mph - N/A   Clear
8:53 PM 27.0 °F 18.7 °F 19.9 °F 75% 30.09 in 10.0 mi South 8.1 mph - N/A   Overcast
9:53 PM 27.0 °F 17.3 °F 19.9 °F 75% 30.07 in 10.0 mi South 10.4 mph - N/A   Overcast
10:53 PM 28.0 °F 19.3 °F 19.9 °F 72% 30.07 in 10.0 mi SSW 9.2 mph - N/A   Mostly Cloudy
11:53 PM 28.0 °F 19.3 °F 21.0 °F 75% 30.06 in 10.0 mi SSW 9.2 mph - N/A   Overcast